DW1053 Weather Reports


Display with metric or nautical units.
time (UTC)temp
F
wind
direction
speed
MPH
gust
MPH
rain 1hr
in
rain 24hr
in
rain mn
in
humidity
%
barometer
mb
20260507190207 57 340 0.0 4.0 0.00 0.06 0.06 70 1010.5
20260507180206 59 344 0.0 1.0 0.00 0.06 0.06 58 1010.3
20260507170207 61 10 0.0 4.0 0.00 0.08 0.06 55 1010.1
20260507160232 62 315 0.0 5.0 0.00 0.09 0.06 56 1010.1
20260507150207 62 9 0.0 5.0 0.00 0.10 0.06 55 1010.1
20260507140206 64 295 1.0 8.0 0.00 0.10 0.06 47 1010.1
20260507130218 62 184 1.0 10.0 0.00 0.13 0.06 56 1010.4
20260507120206 60 349 0.0 6.0 0.00 0.19 0.06 69 1010.6
20260507110207 58 139 0.0 0.0 0.00 0.37 0.06 74 1010.6
20260507100207 58 296 0.0 4.0 0.00 0.43 0.06 71 1010.8
20260507080208 53 164 0.0 3.0 0.00 0.43 0.06 93 1010.3
20260507070211 51 165 0.0 0.0 0.01 0.43 0.06 94 1010.1
20260507060206 50 165 0.0 0.0 0.01 0.42 0.06 94 1009.7
20260507050209 50 181 0.0 1.0 0.00 0.41 0.05 93 1009.1
20260507040208 50 182 0.0 0.0 0.00 0.41 0.05 93 1008.5
20260507030206 50 182 0.0 0.0 0.01 0.41 0.05 93 1008.3
20260507020206 49 182 0.0 0.0 0.02 0.40 0.04 93 1008.0
20260507000209 50 183 0.0 0.0 0.00 0.36 0.00 93 1007.5
20260506230207 50 183 0.0 0.0 0.00 0.36 0.00 93 1007.4
20260506220210 51 183 0.0 0.0 0.00 0.36 0.36 93 1007.2
20260506210206 51 309 0.0 0.0 0.00 0.36 0.36 92 1006.8